Location: Praha
(50.0830°N, 14.4670°E)
Time: 03:34:50
(UTC+02:00)

ISS - Pass Details

Date: 23 May 2021
Orbit: 417 x 422 km, 51.6° (Epoch: 13 June)

Event Time Altitude Azimuth Distance (km) Brightness Sun altitude
Rises 23:46:44 0° 287° (WNW) 2,369 0.6 -17.4°
Reaches altitude 10° 23:48:52 10° 283° (WNW) 1,504 -0.6 -17.5°
Maximum altitude 23:52:10 54° 205° (SSW) 514 -3.7 -17.6°
Enters shadow 23:52:20 54° 192° (SSW) 519 -3.7 -17.6°
